Tracking 29892 objects as of 21-Nov-2024
HD Live streaming from Space Station
objects crossing your sky now

OBJECT V

Track OBJECT V now!
10-day predictions


NORAD ID: 57185
Int'l Code: 2023-091V
Perigee: 516.2 km
Apogee: 530.1 km
Inclination: 97.6 °
Period: 94.9 minutes
Semi major axis: 6894 km
RCS: Unknown
Launch date: June 27, 2023
Source: (TBD)
Launch site: VOSTOCHNY COSMODROME (VOSTO)
Your satellite tracking list
Your tracking list is empty




NASA's NSSDC Master Catalog

Two Line Element Set (TLE):
1 57185U 23091V   24326.12119872  .00016807  00000-0  86081-3 0  9997
2 57185  97.5922  18.8265 0010073 297.1240  62.8965 15.16626302 77280
Source of the keplerian elements: AFSPC